AirNav   Pilot Hours Calculator
 
 1063 users online  

MO20 Nevada Regional Medical Center Heliport
Nevada, Missouri, USA

GOING TO NEVADA?


FAA INFORMATION EFFECTIVE 07 OCTOBER 2021

Location

FAA Identifier: MO20
Lat/Long: 37-49-54.8600N 094-21-38.0100W
37-49.914333N 094-21.633500W
37.8319056,-94.3605583
(estimated)
Elevation: 856 ft. / 261 m (estimated)
Variation: 04E (2000)
From city: 1 mile S of NEVADA, MO
Time zone: UTC -5 (UTC -6 during Standard Time)
Zip code: 72753

Heliport Operations

Heliport use: Private use, MEDICAL USE.
Activation date: 12/2000
Control tower: no
ARTCC: KANSAS CITY CENTER
FSS: COLUMBIA FLIGHT SERVICE STATION
Attendance: UNATNDD
Wind indicator: yes
Segmented circle: no

Heliport Communications

WX AWOS-3PT at NVD (2.9 nm NE): 119.175 (417-448-1635)
WX AWOS-3P at FSK (19 nm W): 124.425 (620-223-0655)

Nearby radio navigation aids

VOR radial/distance  VOR name  Freq  Var
BUMr160/27.1BUTLER VORTAC115.9007E

Heliport Services

Runway Information

Helipad H1

Dimensions: 40 x 40 ft. / 12 x 12 m
Surface: concrete
Runway edge lights: PERI
Latitude: 37-49.914333N
Longitude: 094-21.633500W
Elevation: 856.0 ft.
Traffic pattern: leftleft

Heliport Ownership and Management from official FAA records

Ownership: Privately-owned
Owner: NEVADA REGIONAL MEDICAL CENTER
800 SOUTH ASH
NEVADA, MO 64772
Phone 417-667-3355
Manager: MICHAEL HOLDER
800 SOUTH ASH
NEVADA, MO 64772
Phone 417-667-3500
EXT 101

Additional Remarks

A52-H1 25 FT PLINES 65 FT WEST; 10 FT BLDG 81 FT SOUTH; & 35 FT TREES 8 FT NORTHWEST OF HELIPAD.
OWNER DESIRES HELIPORT NOT BE CHARTED.
FOR CD CTC KANSAS CITY ARTCC AT 913-254-8508.

Instrument Procedures

There are no published instrument procedures at MO20.

Some nearby airports with instrument procedures:

KNVD - Nevada Municipal Airport (3 nm NE)
KFSK - Fort Scott Municipal Airport (19 nm W)
KLLU - Lamar Municipal Airport (21 nm S)
KBUM - Butler Memorial Airport (27 nm N)
MO3 - Stockton Municipal Airport (28 nm E)
 
Loc | Ops | Rwys | IFR | FBO | Links
Com | Nav | Svcs | Stats | Notes
Area around MO20 (Nevada Regional Medical Center Heliport)
 
Road maps at: MapQuest Bing Google
 
Aerial photo
No photo
 
Sectional chart

 
Airport distance calculator
Flying to Nevada Regional Medical Center Heliport? Find the distance to fly.

From to MO20

Sunrise and sunset
Times for 21-Oct-2021
 Local
(UTC-5)
 Zulu
(UTC)
Morning civil twilight07:0612:06
Sunrise07:3312:33
Sunset18:3123:31
Evening civil twilight18:5823:58

Current date and time
Zulu (UTC)  21-Oct-2021 12:28:20
Local (UTC-5)  21-Oct-2021 07:28:20
 
METAR
KPTS 
29nm SW 
211215Z AUTO 00000KT 10SM CLR 06/04 A3017 RMK AO2 T00630038
KJLN 
41nm S 
211153Z 28005KT 10SM CLR 07/04 A3017 RMK AO2 SLP216 T00670044 10100 20067 53012
KGLY 
45nm NE 
211215Z AUTO 29006KT 10SM CLR 07/04 A3012 RMK AO2
KLRY 
47nm N 
211215Z AUTO 29004KT 10SM CLR 06/03 A3016 RMK AO2
KK88 
49nm W 
211215Z AUTO 29006KT 10SM CLR 05/03 A3019 RMK AO1 T00500027
TAF
KJLN 
41nm S 
211120Z 2112/2212 29005KT P6SM SKC
NOTAMs
Click for the latest NOTAMs
NOTAMs are issued by the DoD/FAA and will open in a separate window not controlled by AirNav.

 

 
 

Would you like to see your business listed on this page?

 If your business provides an interesting product or service to pilots, flight crews, aircraft, or users of the Nevada Regional Medical Center Heliport, you should consider listing it here.  To start the listing process, click on the button below
 
Add a business
 

Other Pages about Nevada Regional Medical Center Heliport

Update a link
 
Copyright © AirNav, LLC. All rights reserved. Privacy Policy  Contact